AirNav  
 
 533 users online  

1U9 Pine Airport
Pine, Idaho, USA

GOING TO PINE?


FAA INFORMATION EFFECTIVE 25 FEBRUARY 2021

Location

FAA Identifier: 1U9
Lat/Long: 43-27-58.5000N 115-18-36.1000W
43-27.975000N 115-18.601667W
43.4662500,-115.3100278
(estimated)
Elevation: 4232 ft. / 1290 m (estimated)
Variation: 17E (1985)
From city: 1 mile S of PINE, ID
Time zone: UTC -7 (UTC -6 during Daylight Saving Time)
Zip code: 83647

Airport Operations

Airport use: Open to the public
Activation date: 05/1950
Control tower: no
ARTCC: SALT LAKE CITY CENTER
FSS: BOISE FLIGHT SERVICE STATION
NOTAMs facility: BOI (NOTAM-D service available)
Attendance: UNATNDD
Wind indicator: yes
Segmented circle: yes

Airport Communications

CTAF: 122.9

Nearby radio navigation aids

VOR radial/distance  VOR name  Freq  Var
LIAr017/(35.4)LIBERATOR VOR114.9018E
BOIr081/38.7BOISE VORTAC113.3017E

Airport Services

Parking: tiedowns
Airframe service: NONE
Powerplant service: NONE
Bottled oxygen: NONE
Bulk oxygen: NONE

Runway Information

Runway 16/34

Dimensions: 2300 x 125 ft. / 701 x 38 m
Surface: turf, in fair condition
Runway edge markings: 16/34 EDGES & THRS MARKED WITH WHITE ROCKS.
RUNWAY 16  RUNWAY 34
Latitude: 43-28.163893N43-27.785953N
Longitude: 115-18.618483W115-18.585762W
Elevation: 4222.0 ft.4206.0 ft.
Traffic pattern: leftright
Runway heading: 159 magnetic, 176 true339 magnetic, 356 true
Obstructions: 17 ft. road, 115 ft. right of centerline
RY 16 +750 FT TIMBERED RIDGE AT 2000 FT ON CNTRLN; +50 FT TREE AT 300 FT, 80 FT LEFT; +50 FT TREES AT 350 FT, ON CNTRLN; +40 FT TREE AT 120 FT, 70 FT RIGHT.
40 ft. tree, 200 ft. from runway, 100 ft. left of centerline, 5:1 slope to clear

Airport Ownership and Management from official FAA records

Ownership: Publicly-owned
Owner: STATE OF ID, ITD DIV OF AERO
P.O. BOX 7129
BOISE, ID 83707-1129
Phone 208-334-8775
Manager: DIV ADMIN
P.O. BOX 7129
BOISE, ID 83707-1129
Phone 208-334-8775

Airport Operational Statistics

Aircraft operations: avg 20/week *
98% transient general aviation
2% military
* for 12-month period ending 30 June 2017

Additional Remarks

NO WINTER MAINTENANCE.
NO LINE OF SIGHT BETWEEN RWY ENDS.
RECOMMEND LAND RY 34 & TAKEOFF R\Y 16 WHEN WIND CONDITIONS PERMIT.
RY HAS SIDESLOPE, DOWNHILL FM WEST TO EAST.
FOR CD CTC BIG SKY APCH AT 208-364-5860/5861.

Instrument Procedures

There are no published instrument procedures at 1U9.

Some nearby airports with instrument procedures:

U76 - Mountain Home Municipal Airport (27 nm SW)
KMUO - Mountain Home Air Force Base (35 nm SW)
KBOI - Boise Air Terminal/Gowen Field (40 nm W)
KGNG - Gooding Municipal Airport (41 nm SE)
KSUN - Friedman Memorial Airport (44 nm E)
 
Loc | Ops | Rwys | IFR | FBO | Links
Com | Nav | Svcs | Stats | Notes
Area around 1U9 (Pine Airport)
 
Road maps at: MapQuest Bing Google
 
Aerial photo
WARNING: Photo may not be current or correct
Aerial photo of 1U9 (Pine Airport)
Photo by Raul Agosto
Photo taken 31-May-2014
looking northwest.

Do you have a better or more recent aerial photo of Pine Airport that you would like to share? If so, please send us your photo.

 
Sectional chart

 
Airport distance calculator
Flying to Pine Airport? Find the distance to fly.

From to 1U9

Sunrise and sunset
Times for 08-Mar-2021
 Local
(UTC-7)
 Zulu
(UTC)
Morning civil twilight06:3813:38
Sunrise07:0714:07
Sunset18:3801:38
Evening civil twilight19:0602:06

Current date and time
Zulu (UTC)  08-Mar-2021 12:20:15
Local (UTC-7)  08-Mar-2021 05:20:15
 
METAR
KMUO 
36nm SW 
081158Z 00000KT 10SM OVC100 02/02 A2991 RMK AO2A SLP131 10022 21001 57008
KBOI 
41nm W 
081153Z 24003KT 10SM BKN120 02/M02 A2990 RMK AO2 SLP128 T00171017 10039 20011 56016
KGNG 
41nm SE 
081155Z AUTO 05004KT 10SM FEW039 SCT046 OVC055 M01/M03 A2993 RMK AO2
KSUN 
45nm E 
081155Z AUTO 33009KT 10SM CLR 00/M05 A2991 RMK AO2 TSNO
KSNT 
45nm N 
081151Z AUTO 00000KT M05/M07 A2994 RMK AO1 SLP121 P0001 60001 70001 T10501072 11033 21072 58014
TAF
KMUO 
36nm SW 
081000Z 0810/0916 30009KT 9999 SCT100 BKN120 QNH2985INS BECMG 0820/0821 32010G15KT 9999 SCT060 BKN080 620802 QNH2983INS TEMPO 0823/0903 32012G22KT VCSH SCT040 BKN060 620604 BECMG 0902/0903 31009KT 9999 VCSH SCT080 SCT140 QNH2991INS TX11/0823Z TN01/0813Z
KBOI 
41nm W 
081120Z 0812/0912 18006KT P6SM BKN080 FM082200 33010G20KT P6SM VCSH BKN040 FM090400 30009KT P6SM BKN100 FM090800 15007KT P6SM BKN100
NOTAMs
Click for the latest NOTAMs
NOTAMs are issued by the DoD/FAA and will open in a separate window not controlled by AirNav.

 

 
 

Would you like to see your business listed on this page?

 If your business provides an interesting product or service to pilots, flight crews, aircraft, or users of the Pine Airport, you should consider listing it here.  To start the listing process, click on the button below
 
Add a business
 

Other Pages about Pine Airport

Update a link
 
Copyright © AirNav, LLC. All rights reserved. Privacy Policy  Contact